RH
53 53 51 53 55 54 52 53 52 50 58 76 86 92 93 88 84 83 77 78 81 76 90 88 86 82 86 92 86 81 85 85 87 92 89 91 95 98 99 98 98 98 96
53 52 55 58 60 58 58 57 56 49 54 73 79 88 90 88 87 85 78 77 80 82 82 94 89 81 81 84 94 88 88 92 86 91 90 94 96 95 96 99 97 97 97
49 51 54 61 66 68 66 60 62 54 54 58 75 84 87 88 87 85 84 80 79 85 92 92 85 85 88 87 89 96 93 92 90 89 89 94 98 97 97 97 98 97 96
46 48 50 54 57 61 68 65 65 64 56 56 68 82 92 94 91 90 87 82 78 85 91 88 82 83 88 92 92 91 98 98 94 92 92 94 96 98 99 97 97 95 94
61 55 52 49 53 56 64 70 72 73 62 58 59 74 87 94 93 91 88 84 87 88 86 88 87 85 87 88 90 95 96 96 98 96 93 97 98 95 95 95 98 97 94
61 50 50 51 57 62 68 75 76 75 73 62 57 61 75 89 94 93 94 90 89 91 92 90 90 91 87 85 87 88 91 91 92 96 97 98 97 94 92 97 96 97 96
52 54 54 57 60 62 65 72 78 79 78 70 61 59 64 83 92 92 95 93 93 93 93 92 90 90 86 86 86 89 89 89 87 84 94 89 89 90 92 91 98 96 93
39 41 43 45 46 49 60 68 72 76 78 76 67 61 60 78 90 91 92 94 94 94 91 89 85 82 79 79 79 86 78 72 81 75 81 84 86 85 93 94 94 97 97
39 39 40 39 40 42 44 52 61 67 74 79 72 64 61 64 78 85 88 92 91 85 86 82 80 78 73 70 71 81 72 78 75 81 81 84 82 80 79 87 93 95 97
37 37 38 39 39 38 41 45 52 62 65 74 77 65 61 59 64 77 86 87 87 84 80 76 74 74 70 67 65 67 64 70 74 74 72 72 77 75 77 80 78 82 92
38 35 37 38 40 41 42 42 44 51 59 67 73 71 64 58 57 63 75 80 81 81 75 70 68 67 66 62 58 60 55 58 61 62 70 67 69 75 75 80 79 81 81
39 34 35 40 40 43 44 44 45 44 43 48 62 69 66 62 60 60 65 74 75 72 70 67 64 60 61 60 56 58 58 61 63 63 67 63 57 75 77 83 81 81 81
43 43 43 45 46 47 46 46 48 48 48 46 50 58 63 60 57 57 57 62 69 67 60 54 56 52 52 55 54 56 58 61 63 66 69 68 70 79 82 85 88 88 75
46 49 51 52 52 50 50 48 46 49 50 53 52 54 57 58 57 53 53 55 56 65 64 54 49 50 51 55 56 54 56 60 62 69 70 70 72 80 84 80 85 82 90
49 52 52 50 53 54 49 49 52 52 52 56 57 57 56 60 60 57 54 52 52 49 53 50 50 52 51 51 61 61 62 63 64 69 69 73 78 74 76 76 87 84 89
53 51 49 48 54 57 55 48 51 53 56 59 59 57 58 61 62 62 60 56 54 53 52 53 55 59 46 55 63 65 68 66 66 71 72 76 74 68 63 63 67 77 85
56 55 55 55 58 58 53 54 55 59 59 64 59 59 61 62 65 63 64 61 58 57 57 57 57 58 58 58 59 68 78 74 73 71 72 70 60 71 79 67 62 66 64
55 54 56 59 57 61 59 59 59 63 67 67 67 65 68 66 66 72 71 65 60 57 56 56 59 57 54 59 65 68 84 85 83 76 74 75 72 79 74 76 80 80 78
60 60 62 61 62 65 62 65 63 68 70 68 66 64 67 67 66 71 69 69 68 65 60 54 62 61 52 62 69 69 87 92 88 81 75 73 73 69 65 76 81 83 77
58 61 60 62 65 64 66 70 72 70 68 65 65 64 68 71 71 70 72 72 70 63 66 62 62 61 55 61 66 68 80 90 91 87 75 69 72 66 63 80 83 89 80
61 63 65 68 66 65 68 67 68 69 64 65 65 65 66 70 69 74 71 71 73 69 66 63 58 62 56 61 62 68 76 76 84 80 74 66 66 66 64 72 81 81 77
60 58 62 60 60 67 71 70 74 64 68 70 71 70 70 67 64 78 73 80 79 77 74 72 70 70 64 62 63 67 71 71 78 75 66 64 66 67 69 71 77 78 74
57 58 61 61 59 62 64 71 56 62 66 69 69 70 69 70 72 82 78 81 83 85 76 76 71 70 70 62 62 64 63 72 75 72 66 68 68 68 77 75 76 77 85
56 58 59 57 53 46 52 61 63 60 72 73 71 74 75 72 74 81 82 84 81 82 79 75 74 68 74 76 70 60 65 66 72 76 70 69 72 76 86 85 85 88 85
53 56 59 58 52 49 52 52 55 62 57 58 61 70 74 76 79 80 85 83 78 74 73 76 76 74 75 71 67 69 72 72 70 81 81 85 90 95 97 95 88 90 88
60 62 55 51 46 48 48 48 51 60 63 61 59 65 72 76 79 84 85 76 79 80 80 78 80 72 67 66 66 70 76 86 93 89 96 88 92 94 92 93 95 85 84
Wind_Speed
5 6 5 5 4 3 4 4 3 3 1 1 2 1 2 3 3 3 5 5 5 7 5 5 7 8 8 9 9 7 7 5 3 3 4 4 5 4 3 2 3 3 4
4 5 5 5 5 5 6 6 5 3 1 1 2 2 2 3 3 3 4 5 5 6 5 5 7 9 8 10 9 7 5 4 2 2 2 4 1 3 4 4 3 3 3
7 5 6 7 6 7 8 7 6 5 3 3 1 2 3 2 3 3 3 3 5 5 4 6 7 8 7 7 10 6 6 5 3 5 4 2 2 1 3 5 5 3 6
4 3 5 4 6 7 6 6 5 5 4 3 2 3 2 3 2 3 3 4 5 5 5 6 8 8 7 9 8 7 6 4 5 3 3 1 3 3 1 2 2 2 5
2 1 2 4 5 4 5 6 6 6 5 5 5 4 5 3 3 3 5 4 3 5 5 4 6 7 6 8 10 9 8 6 4 2 1 1 2 2 3 3 2 1 2
3 4 4 5 6 6 6 6 7 7 6 6 7 7 7 6 4 4 4 4 2 2 4 5 4 4 5 7 7 8 8 7 7 5 4 2 1 1 2 3 1 2 1
5 6 7 8 7 8 7 6 7 8 7 7 7 7 8 7 7 6 4 5 3 2 4 3 4 3 4 5 6 6 5 6 6 7 4 4 4 3 1 3 1 2 1
5 6 7 7 7 7 7 6 7 8 7 7 8 7 7 5 5 5 4 4 3 4 3 4 4 5 4 5 5 3 4 4 4 7 5 3 4 3 3 2 2 1 2
4 6 7 7 7 7 8 6 7 7 7 7 6 7 7 7 6 7 5 4 5 4 5 5 5 5 4 4 3 2 3 3 2 2 3 2 2 3 3 3 1 2 3
6 6 6 7 7 6 6 7 6 8 8 8 7 7 7 7 7 6 7 6 6 5 6 6 6 6 5 5 3 2 1 0 1 1 2 2 2 3 3 2 2 1 2
4 5 6 6 7 7 7 8 8 8 8 7 7 7 7 7 7 6 6 7 6 6 7 6 6 6 6 5 3 3 3 2 3 2 3 1 1 1 2 2 2 2 2
5 6 6 7 8 8 8 8 8 7 7 7 7 8 7 7 7 7 8 7 7 7 7 6 6 6 6 6 5 5 3 3 3 3 2 3 2 2 1 1 2 2 3
8 7 8 8 8 8 8 8 8 8 8 7 7 7 7 7 8 8 8 7 7 7 7 6 6 6 6 6 5 5 5 4 4 3 3 3 2 2 1 1 3 2 2
7 6 7 7 7 8 8 9 10 8 9 8 7 7 8 8 7 7 7 7 8 8 7 7 7 6 6 6 6 5 5 5 4 4 3 3 4 5 4 3 3 2 3
6 7 8 8 7 8 10 8 8 8 9 8 7 8 9 7 7 7 8 8 7 8 7 7 7 7 6 5 6 6 6 6 5 5 4 4 4 5 4 3 3 4 3
7 9 10 11 7 8 9 11 9 9 8 8 9 9 9 8 7 8 8 7 7 7 7 8 7 7 6 11 13 10 6 6 5 5 5 4 5 4 5 5 5 4 4
7 8 9 8 7 7 10 12 10 8 9 7 8 9 8 9 7 8 7 8 8 7 8 8 7 8 8 14 15 15 6 6 6 6 6 5 4 6 4 5 5 5 5
8 10 8 7 8 6 9 10 8 8 8 8 8 7 8 11 10 7 8 9 6 8 8 8 8 9 9 17 18 16 6 6 7 7 7 7 7 7 6 5 5 4 4
7 7 6 6 7 8 9 9 10 7 7 8 10 11 9 11 11 10 10 9 5 6 7 8 7 9 11 16 17 14 6 7 8 6 7 7 7 11 14 6 6 5 4
6 6 7 6 6 8 7 7 8 8 9 10 11 10 9 9 11 11 10 6 5 8 5 7 7 13 12 15 17 15 6 8 7 6 7 16 10 14 15 6 5 5 4
6 5 6 6 7 8 7 9 9 10 10 10 10 11 11 11 10 9 8 8 7 5 6 7 8 8 10 9 18 19 8 8 7 7 7 7 18 16 16 13 7 6 5
5 5 6 8 8 7 6 8 8 11 10 10 9 9 9 8 8 8 9 7 6 6 7 6 7 5 6 15 16 19 20 14 8 8 6 7 17 16 16 12 12 11 9
4 4 5 8 7 6 5 8 11 10 11 10 10 9 10 9 8 7 9 7 5 5 7 5 6 6 5 6 17 18 19 20 12 6 8 13 16 17 14 15 13 11 4
4 4 7 8 11 7 6 7 8 10 9 10 11 10 10 12 10 6 5 5 6 5 6 7 7 7 4 4 4 8 8 17 13 12 9 8 9 10 9 8 7 4 4
4 5 6 7 9 8 8 8 7 6 8 9 9 9 7 9 10 8 7 7 6 7 8 7 7 7 7 6 11 10 7 7 10 9 5 5 5 6 6 5 6 5 4
5 8 9 8 10 9 11 10 10 6 7 11 9 9 9 9 9 9 11 12 15 18 18 18 15 9 17 18 17 18 20 19 20 11 7 9 9 9 8 8 7 6 8
Wind_Direction
145 134 131 137 162 217 253 252 244 279 345 332 343 345 302 308 311 319 324 340 336 338 335 346 342 336 329 310 302 297 287 292 273 293 309 303 299 321 277 69 259 159 121
144 164 179 200 217 237 244 252 253 239 252 209 250 245 276 276 280 290 324 327 337 330 360 353 339 330 326 320 319 306 296 266 269 262 273 290 253 38 354 92 89 94 140
189 209 216 221 234 244 245 247 244 235 244 251 301 319 302 311 320 320 310 314 329 340 4 3 341 325 321 325 325 301 293 280 277 227 205 284 189 100 332 34 81 147 118
150 176 212 237 237 253 254 245 239 249 239 240 240 250 243 279 261 276 280 298 333 343 16 1 344 331 326 326 328 330 314 294 278 319 216 241 173 168 178 16 41 38 114
86 339 301 274 273 264 242 235 241 244 236 233 224 239 263 253 258 287 304 309 348 0 4 356 342 336 333 328 331 335 348 338 322 257 298 67 51 118 138 151 160 145 84
15 338 308 280 269 275 265 252 247 253 246 237 235 238 254 270 284 283 294 288 301 336 322 322 333 321 326 330 330 332 340 348 354 7 4 67 14 119 122 108 150 149 148
7 333 322 314 303 292 283 272 255 262 252 245 242 240 246 258 262 267 266 281 284 267 277 295 317 312 317 316 319 329 342 349 8 4 1 21 18 350 303 107 141 167 175
3 349 330 327 325 323 313 289 276 275 267 255 252 245 246 242 246 252 257 261 255 267 263 271 285 295 306 312 325 327 341 10 5 4 17 29 9 18 353 54 157 155 179
352 340 336 340 321 325 316 299 290 277 271 257 253 252 246 246 249 254 251 250 252 240 255 258 258 257 269 284 300 292 339 350 5 45 28 20 19 27 13 40 71 162 198
350 342 347 338 339 338 323 325 292 273 275 267 248 244 239 238 241 244 247 245 250 244 252 258 267 263 255 252 258 231 233 332 320 8 45 41 358 15 19 10 4 44 155
343 322 322 332 336 325 331 322 316 301 291 276 263 254 249 241 240 240 240 240 249 244 241 245 256 268 275 265 267 266 247 234 212 174 155 108 48 66 10 3 16 17 55
334 327 337 331 336 331 331 318 320 325 299 287 271 258 257 249 246 246 243 236 240 241 236 243 246 259 268 261 255 263 263 237 231 243 175 179 153 128 77 78 53 69 41
344 345 359 349 329 316 315 322 321 310 307 309 298 285 272 262 253 248 245 239 238 239 234 232 238 244 255 258 252 249 246 232 220 210 199 207 173 178 172 147 143 129 86
340 348 343 317 310 312 318 320 317 312 309 313 308 297 281 267 261 256 248 239 231 233 230 230 233 236 240 239 244 247 251 250 231 216 206 209 182 184 182 179 181 171 147
354 335 327 325 316 321 323 321 309 304 306 307 310 300 295 277 272 268 257 251 244 238 218 219 229 231 234 230 228 236 242 241 235 233 221 203 192 177 181 155 175 175 171
331 326 322 320 316 311 305 319 315 314 320 318 312 307 305 295 280 276 270 262 253 240 230 230 224 225 228 224 225 220 213 226 228 232 243 220 221 236 229 209 197 173 162
303 306 306 304 307 312 317 320 320 309 316 309 312 312 312 309 297 286 281 267 257 242 236 237 228 237 230 234 235 228 195 203 212 212 209 208 207 215 231 256 241 246 238
313 312 301 305 313 305 311 309 313 309 307 308 305 308 309 310 309 299 281 276 250 243 243 240 229 234 235 234 235 231 205 211 214 211 203 199 203 198 200 219 246 255 273
289 280 294 298 311 312 307 307 315 310 316 319 324 324 319 311 311 305 302 289 260 251 240 241 231 226 246 231 230 225 199 214 221 216 207 199 199 207 211 189 205 227 228
284 296 307 312 310 300 304 311 310 317 319 322 317 316 314 309 308 307 305 286 247 255 244 247 233 233 245 228 229 223 203 219 219 222 215 212 195 208 214 188 194 209 216
309 324 320 307 302 309 321 326 321 321 316 315 316 319 320 318 311 308 309 302 292 274 263 252 252 237 240 236 236 228 207 221 221 224 219 215 217 210 214 196 200 193 178
316 330 325 318 311 307 318 313 309 306 304 302 301 301 302 302 304 298 303 295 289 289 284 271 269 244 232 236 236 233 231 218 221 225 214 202 212 213 214 211 205 205 215
311 306 294 297 299 295 296 303 309 311 308 309 305 303 305 303 296 298 307 307 293 277 284 272 271 264 231 235 247 242 241 237 228 222 203 196 207 209 199 208 205 211 178
307 286 308 310 304 307 296 257 284 300 304 307 310 308 310 315 314 300 284 292 296 286 277 276 268 269 255 229 215 224 232 249 234 221 210 195 197 174 176 195 214 197 184
287 269 277 280 283 295 293 296 291 290 305 310 311 311 305 306 307 301 294 292 271 254 278 264 256 268 263 237 219 210 215 228 228 216 183 176 168 177 184 192 198 183 189
292 309 308 301 297 298 298 302 301 297 313 318 319 317 316 314 308 306 306 294 284 285 285 276 264 262 257 263 230 220 223 228 234 223 194 199 191 194 196 200 198 190 204